Simultaneous Nadir Overpasses (SNOs) Predictions

Prediction of SNOs between METOP-B and NOAA-19 Satellite Orbit:

Table of predicted SNOs for the next 14.0 days since TLE Epoch: 11/4/2017
Index Date (METOP-B) Time (METOP-B) Lat,Lon (METOP-B) SZA (METOP-B ) Date (NOAA-19) Time (NOAA-19) Lat,Lon (NOAA-19) SZA (NOAA-19 ) Distance(km) Time Diff (sec)
1 11/12/2017 13:48:51 77.75, -20.14 95.73 11/12/2017 13:47:37 77.77, -20.52 95.73 9.13 74
2 11/12/2017 14:39:33 -77.71, 147.01 84.31 11/12/2017 14:38:32 -77.71, 147.03 84.31 0.67 61
3 11/12/2017 15:30:14 77.69, -45.77 95.68 11/12/2017 15:29:37 77.71, -45.72 95.70 2.91 37
4 11/12/2017 16:20:55 -77.69, 121.59 84.31 11/12/2017 16:20:33 -77.70, 121.61 84.31 0.86 22
5 11/12/2017 17:11:36 77.67, -71.19 95.68 11/12/2017 17:11:38 77.69, -71.14 95.71 3.10 2
6 11/12/2017 18:02:17 -77.67, 96.17 84.31 11/12/2017 18:02:34 -77.68, 96.19 84.30 1.04 17
7 11/12/2017 18:52:58 77.65, -96.61 95.68 11/12/2017 18:53:39 77.68, -96.56 95.71 3.28 41
8 11/12/2017 19:43:39 -77.66, 70.74 84.31 11/12/2017 19:44:35 -77.67, 70.77 84.29 1.23 56
9 11/12/2017 20:34:26 77.38,-123.20 95.38 11/12/2017 20:35:34 77.42,-120.77 95.53 59.25 68




NCC Satellite Simultaneous Nadir Overpasses (SNOs) Prediction Service
